Regional Weather Roundup
Issued by NWS

Home | Current Version | Previous Version | Graphics & Text | Print | Product List | Glossary On
Versions: 1 2 3 4 5 6 7 8 9 10 11 12 13 14 15 16 17 18 19 20 21 22 23 24 25 26 27 28 29 30 31 32 33 34 35 36 37 38 39 40 41 42 43 44 45 46 47 48 49 50
000
ASUS43 KFSD 301302
RWRSD

WEATHER ROUNDUP FOR SOUTH DAKOTA
NATIONAL WEATHER SERVICE SIOUX FALLS SD
700 AM CST FRI JAN 30 2015

NOTE: "FAIR" INDICATES FEW OR NO CLOUDS BELOW 12,000 FEET WITH NO
SIGNIFICANT WEATHER AND/OR OBSTRUCTIONS TO VISIBILITY.


SDZ001>005-009-010-012>017-301400-
NORTHWEST AND NORTH CENTRAL SOUTH DAKOTA

CITY           SKY/WX    TMP DP  RH WIND       PRES   REMARKS
BUFFALO          N/A     25  16  68 CALM      30.11S
FAITH            N/A     21  16  81 S10       30.19S WCI  10
MOBRIDGE       CLEAR     21  18  88 SE12      30.24F WCI   9
$$

SDZ012>016-024>037-041>051-057-063-072>074-301400-
SOUTHWEST AND SOUTH CENTRAL SOUTH DAKOTA

CITY           SKY/WX    TMP DP  RH WIND       PRES   REMARKS
RAPID CTY ARPT MOCLDY    21  15  78 N3        30.18F
PIERRE         CLEAR     21  18  88 SE10      30.27F WCI  10
CUSTER         MOCLDY    25  19  78 NW6       30.17S WCI  18
ELLSWORTH AFB  MOCLDY    24  16  71 W3        30.17F
PHILIP         MOCLDY    21  15  78 CALM      30.23F
PINE RIDGE     MOCLDY    32  19  58 S15       30.22F WCI  22
WINNER         FAIR      27  20  75 S16       30.31F WCI  15
$$

SDZ004>011-016>023-039-040-301400-
NORTHEAST SOUTH DAKOTA

CITY           SKY/WX    TMP DP  RH WIND       PRES   REMARKS
ABERDEEN       CLEAR     18  14  84 S12       30.37F WCI   5
WATERTOWN      CLOUDY    18  15  88 S13       30.40R WCI   5
SISSETON         N/A     14  12  92 S9        30.41F WCI   2
$$

SDZ017-020-022-023-036>040-048>070-301400-
SOUTHEAST SOUTH DAKOTA

CITY           SKY/WX    TMP DP  RH WIND       PRES   REMARKS
SIOUX FALLS    PTCLDY    19  15  84 S7        30.46S WCI  10
HURON          CLEAR     18  15  88 SE9       30.40F WCI   7
MITCHELL       CLEAR     19  17  92 SE9       30.44F WCI   8
YANKTON        CLEAR     16  12  86 SE6       30.48S WCI   7
$$

ABBREVIATIONS USED IN REMARKS
   TC - TEMPERATURE IN CELSIUS
  WCI - WIND CHILL INDEX
   HX - HEAT INDEX
  VSB - VISIBILITY



USA.gov is the U.S. government's official web portal to all federal, state and local government web resources and services.